Wind_Speed
12 13 13 13 13 13 12 13 13 13 13 13 13 14 14 14 14 14 14 14 14 14 14 14 14 14 15 16 16 16 17 17 17 17 18 18 17 16 16 17 17 17 18
13 13 13 13 13 13 13 13 14 14 14 14 14 15 15 14 14 14 15 14 14 14 14 14 14 15 16 16 16 17 17 17 16 16 17 17 17 17 16 17 17 18 18
14 14 14 14 14 14 14 14 15 15 15 15 15 15 15 15 15 15 15 15 15 15 15 15 15 15 16 16 17 17 17 17 17 16 16 17 17 17 16 17 17 18 19
15 15 15 15 15 16 15 15 15 16 16 15 16 16 16 16 15 16 16 16 17 17 16 16 16 16 16 16 17 17 17 17 17 17 17 17 16 16 17 17 18 19 20
16 17 16 16 17 17 16 16 16 17 17 17 16 16 17 17 17 17 17 17 17 18 17 17 17 17 17 17 18 18 18 18 18 18 17 17 17 17 18 18 19 20 21
17 18 17 17 18 17 18 18 18 18 18 17 17 17 17 18 17 17 18 18 18 19 19 19 19 18 18 18 18 18 19 19 19 19 19 18 18 18 18 19 20 20 21
19 19 19 19 19 19 19 19 20 20 20 19 19 18 18 18 18 18 18 19 19 20 20 20 20 19 19 19 20 20 20 20 20 20 20 20 20 19 19 20 20 21 22
20 20 20 20 20 20 21 21 21 22 21 21 20 20 19 19 19 19 20 20 21 21 21 21 21 21 21 21 21 21 21 21 21 21 21 21 21 21 20 21 21 21 22
21 21 21 21 22 22 22 22 22 22 22 22 21 20 20 20 21 21 21 21 21 22 22 22 22 22 22 22 22 22 22 23 22 22 23 22 22 22 22 22 22 23 23
22 22 22 22 22 22 23 23 23 23 23 23 22 21 22 22 22 23 23 22 23 23 24 24 23 23 23 24 23 23 23 23 23 23 23 23 23 23 23 23 23 23 23
23 23 23 23 23 24 24 24 24 24 24 24 24 23 23 24 24 25 24 24 24 24 25 25 24 24 24 24 24 24 24 24 24 24 24 24 24 23 23 23 24 24 24
25 25 25 25 25 25 25 25 26 25 25 25 26 25 25 25 26 26 26 26 25 26 26 26 25 25 25 25 25 25 25 25 25 25 25 25 25 24 24 24 24 24 24
27 26 26 27 27 27 27 27 27 27 27 27 27 27 27 27 28 28 28 27 27 27 26 27 26 26 26 26 26 26 26 26 25 26 26 26 26 25 25 25 25 25 24
29 29 29 29 29 29 29 29 29 29 29 29 28 29 29 29 29 29 29 29 29 28 28 27 27 27 27 27 27 27 27 27 27 27 27 27 27 26 25 25 25 26 26
32 32 31 31 32 32 32 32 31 31 31 31 30 31 31 30 30 31 30 30 29 28 28 28 28 28 28 28 28 28 28 28 27 27 26 25 25 25 26 26 26 26 27
34 33 33 33 33 34 34 34 33 33 32 32 33 32 31 31 31 30 30 30 30 30 30 30 29 29 29 28 28 28 27 27 27 27 27 26 26 26 26 27 27 27 27
36 35 34 34 34 35 35 35 34 33 33 33 33 32 32 32 32 31 30 30 30 30 30 30 30 30 29 28 28 28 28 28 28 28 28 28 27 27 28 29 29 29 30
37 37 36 35 36 35 35 34 34 33 33 33 33 32 32 31 31 31 30 30 30 30 30 30 31 30 29 29 29 29 30 29 30 30 30 30 29 29 29 30 30 31 32
37 37 37 37 36 35 35 34 34 34 34 34 33 33 33 32 32 32 31 31 31 31 31 31 31 31 30 30 31 31 31 30 31 31 31 31 31 31 31 31 32 32 33
38 38 37 37 36 36 35 35 35 35 34 34 34 35 34 34 33 33 33 32 32 32 33 32 31 32 31 31 31 32 32 32 32 32 32 33 33 33 33 33 33 34 34
37 37 36 36 37 36 34 34 34 35 35 35 35 34 35 35 34 34 34 34 33 33 33 32 32 32 32 32 33 33 33 33 33 34 34 33 33 34 33 33 34 35 34
36 36 36 36 36 35 34 34 34 34 35 35 35 34 34 34 34 34 34 34 34 34 34 33 33 33 33 33 33 33 33 34 35 35 35 34 35 35 34 34 34 35 34
36 36 36 36 35 35 35 35 35 35 35 35 35 34 34 34 34 34 34 34 34 34 34 34 34 34 33 33 34 34 34 34 36 36 36 36 35 35 35 35 35 35 35
35 36 36 35 36 36 35 35 35 36 35 35 35 35 35 35 34 34 34 34 34 34 34 34 34 34 34 35 35 35 35 36 37 37 37 37 36 37 37 37 36 36 36
35 35 34 35 35 35 35 35 35 36 36 35 35 35 35 35 35 34 34 34 34 34 34 34 34 34 34 34 35 35 35 36 37 37 37 37 37 37 37 37 37 37 37
34 34 34 34 34 34 34 35 35 35 35 34 34 34 34 34 33 34 34 33 34 34 34 34 34 35 35 35 35 35 35 36 35 36 36 36 36 36 37 37 37 38 38
Wind_Direction
351 352 352 350 347 345 343 341 340 339 338 339 340 340 339 338 338 338 335 331 329 327 324 320 317 316 317 317 319 318 315 315 314 311 311 311 307 304 303 302 302 301 301
339 342 343 342 341 340 337 336 336 335 333 332 332 332 332 332 335 336 335 333 329 327 326 324 321 320 321 321 319 319 318 317 316 315 314 313 310 306 306 305 304 302 301
329 331 333 334 333 332 332 330 330 330 329 327 327 328 330 331 331 332 333 331 329 325 324 323 321 321 320 319 319 318 318 317 317 317 315 313 312 309 306 303 303 302 302
322 323 325 326 326 326 327 325 325 325 326 326 325 325 326 326 326 327 328 326 325 325 324 323 320 320 320 320 319 319 318 318 318 318 318 316 316 316 312 308 306 305 304
319 319 318 319 320 321 322 322 322 321 320 321 321 320 320 321 322 322 321 322 322 324 322 320 319 318 318 319 319 319 319 318 317 317 317 316 316 316 315 313 310 308 308
314 315 314 315 316 317 318 318 319 319 318 316 317 318 317 318 320 319 318 318 319 320 319 318 317 316 316 317 317 317 317 317 317 316 315 314 313 312 312 311 309 309 310
307 309 311 312 313 314 314 314 313 314 314 315 314 314 315 315 317 318 317 316 316 316 315 314 314 313 314 314 315 315 315 316 315 315 313 311 310 309 307 308 309 310 310
302 306 306 307 309 309 309 310 310 311 311 312 313 313 311 312 313 315 315 314 315 314 314 313 312 310 309 310 311 311 311 311 312 311 311 310 309 307 306 306 307 308 309
300 302 303 304 305 306 308 307 308 308 308 308 309 309 308 309 309 310 310 310 312 314 312 311 310 309 308 308 309 309 309 309 309 310 309 309 309 307 305 305 306 307 308
295 298 299 302 302 303 305 305 306 305 305 306 305 305 305 305 305 306 305 306 308 309 310 310 308 308 308 307 307 308 307 307 308 309 309 309 308 307 304 304 305 306 307
293 295 296 299 299 300 301 302 303 303 302 303 303 303 303 303 303 303 303 305 306 306 307 308 307 306 306 305 305 306 306 306 306 307 307 307 307 306 305 303 303 305 306
291 292 294 296 297 298 298 299 300 301 301 300 300 300 302 302 302 301 301 303 303 303 304 305 305 305 304 303 304 304 304 304 303 303 304 304 305 304 303 303 302 302 304
290 290 292 294 296 296 296 297 298 298 299 299 298 298 300 301 301 301 301 300 300 300 301 302 303 302 302 302 303 303 303 301 300 301 301 301 302 302 301 301 300 300 301
288 289 291 292 294 295 295 295 296 296 297 298 297 296 297 297 298 298 299 300 299 298 299 300 300 300 300 300 301 302 302 302 302 304 302 300 300 301 302 301 300 301 302
286 287 289 291 292 293 294 294 294 294 294 295 295 296 296 295 295 295 295 296 297 296 296 298 298 299 299 300 300 302 304 306 307 307 305 303 302 302 301 300 300 301 302
285 286 287 288 290 291 292 293 293 292 292 292 293 294 294 294 295 295 295 294 295 295 296 296 295 296 298 299 300 302 304 305 307 307 305 304 303 301 300 299 300 301 302
282 283 285 287 288 289 291 291 290 289 289 290 290 291 291 292 293 293 293 292 292 293 294 295 295 295 297 298 300 301 303 303 304 305 304 302 301 300 299 298 298 299 300
281 283 284 285 287 288 289 290 289 288 288 289 290 290 289 290 291 292 291 290 290 291 292 294 296 295 295 296 297 299 300 301 301 301 302 301 301 300 300 299 298 298 299
280 283 284 283 284 285 287 287 287 287 288 288 288 288 287 287 288 289 290 290 290 291 292 293 293 294 294 295 296 296 297 299 300 300 301 301 301 299 299 299 299 298 298
279 281 282 282 283 284 285 285 286 286 287 288 288 288 287 285 286 287 287 289 289 289 290 291 291 292 293 295 295 295 296 298 299 300 301 300 299 298 298 298 299 299 298
279 280 280 281 282 283 284 285 284 284 285 287 287 287 285 285 285 285 286 286 287 289 290 289 289 290 292 293 293 293 293 295 297 299 299 299 298 298 298 298 299 299 299
278 279 280 280 281 282 284 285 284 283 284 286 286 285 284 284 284 285 285 286 286 287 287 288 288 289 291 292 293 293 293 293 294 296 297 297 298 297 298 298 298 299 300
277 278 279 279 280 281 282 282 283 284 284 284 284 283 283 284 285 285 284 284 285 285 285 286 288 289 291 292 292 292 292 293 294 295 295 296 297 297 297 298 300 302 301
280 280 280 280 280 281 281 282 282 282 283 283 283 283 283 284 284 285 284 283 283 283 283 284 286 287 290 291 291 292 292 294 294 294 294 296 297 297 298 298 300 301 302
282 282 281 280 281 281 281 281 282 283 283 284 284 284 285 284 284 284 284 283 282 282 284 284 285 288 289 290 291 293 294 295 295 295 295 296 298 298 298 298 299 300 299
281 281 281 282 282 282 282 283 283 284 285 285 285 285 285 285 285 284 284 284 285 285 286 286 287 289 290 290 291 292 293 294 295 296 297 297 298 299 300 300 300 300 299
Height
5909 5907 5905 5903 5901 5900 5898 5896 5894 5892 5890 5888 5886 5884 5882 5879 5877 5875 5872 5870 5867 5865 5864 5862 5860 5858 5856 5854 5852 5850 5847 5845 5843 5841 5838 5836 5834 5833 5831 5830 5828 5827 5825
5908 5906 5904 5902 5900 5899 5897 5895 5893 5891 5889 5887 5885 5882 5880 5877 5875 5873 5870 5868 5866 5864 5862 5860 5858 5856 5854 5851 5849 5846 5844 5842 5840 5837 5835 5833 5831 5829 5827 5826 5824 5822 5821
5906 5905 5903 5901 5899 5897 5895 5893 5891 5889 5887 5885 5883 5880 5878 5876 5873 5871 5869 5866 5864 5861 5859 5857 5855 5853 5851 5848 5846 5843 5841 5839 5837 5834 5832 5830 5827 5825 5823 5822 5820 5818 5816
5904 5902 5901 5899 5897 5895 5893 5891 5889 5887 5885 5882 5880 5878 5876 5874 5871 5869 5867 5864 5862 5859 5857 5854 5852 5850 5848 5845 5843 5840 5838 5836 5833 5831 5829 5826 5824 5822 5819 5817 5816 5814 5812
5902 5900 5898 5896 5895 5893 5890 5889 5887 5885 5882 5880 5878 5876 5873 5871 5869 5866 5864 5862 5859 5857 5854 5852 5849 5847 5844 5842 5840 5837 5835 5832 5830 5828 5825 5823 5821 5818 5816 5814 5811 5809 5807
5899 5897 5895 5893 5891 5890 5888 5886 5884 5881 5879 5877 5875 5872 5870 5868 5866 5864 5861 5858 5856 5854 5851 5849 5846 5843 5841 5838 5836 5833 5831 5829 5826 5824 5822 5819 5817 5814 5812 5810 5807 5805 5803
5895 5893 5891 5890 5888 5886 5884 5882 5880 5878 5876 5874 5871 5869 5867 5865 5862 5860 5857 5855 5853 5850 5847 5845 5843 5840 5837 5835 5832 5830 5827 5825 5822 5820 5817 5815 5812 5810 5807 5805 5802 5800 5797
5891 5889 5887 5886 5884 5882 5880 5878 5876 5874 5872 5870 5867 5865 5863 5860 5858 5856 5854 5851 5849 5846 5844 5841 5838 5836 5833 5831 5828 5825 5823 5820 5818 5815 5812 5810 5807 5805 5802 5800 5797 5795 5792
5886 5885 5883 5881 5879 5877 5876 5874 5872 5869 5867 5865 5863 5860 5858 5856 5854 5852 5849 5847 5844 5842 5839 5836 5834 5831 5829 5826 5824 5821 5818 5815 5812 5810 5807 5804 5802 5799 5797 5795 5792 5790 5787
5881 5880 5878 5876 5874 5872 5870 5868 5866 5864 5862 5860 5858 5855 5853 5851 5848 5846 5844 5842 5839 5837 5834 5831 5829 5826 5823 5821 5818 5816 5813 5810 5807 5805 5802 5799 5796 5793 5791 5789 5786 5784 5781
5875 5873 5872 5870 5868 5867 5865 5863 5861 5858 5856 5854 5852 5850 5848 5845 5843 5841 5838 5836 5834 5831 5829 5826 5823 5821 5818 5815 5813 5810 5807 5804 5801 5799 5796 5793 5790 5788 5785 5782 5780 5777 5775
5868 5867 5865 5864 5862 5860 5859 5857 5854 5852 5850 5848 5846 5844 5841 5839 5837 5835 5832 5830 5827 5825 5822 5820 5818 5815 5812 5809 5806 5803 5801 5798 5795 5792 5790 5787 5784 5782 5779 5776 5774 5771 5768
5860 5859 5858 5857 5855 5853 5852 5850 5848 5846 5843 5842 5839 5837 5835 5833 5830 5828 5826 5823 5821 5818 5816 5814 5811 5808 5805 5802 5799 5796 5794 5790 5788 5786 5783 5781 5778 5775 5772 5770 5767 5764 5762
5852 5851 5850 5849 5847 5846 5844 5842 5840 5838 5836 5834 5832 5830 5828 5826 5823 5821 5819 5816 5813 5811 5809 5806 5804 5801 5799 5796 5793 5789 5786 5783 5781 5779 5776 5773 5771 5768 5765 5763 5760 5758 5755
5844 5843 5842 5840 5839 5837 5836 5834 5832 5831 5828 5826 5824 5822 5820 5818 5816 5813 5811 5809 5806 5803 5801 5799 5796 5794 5792 5789 5787 5783 5780 5777 5775 5772 5769 5766 5763 5761 5758 5756 5753 5751 5748
5835 5834 5833 5831 5830 5828 5827 5825 5823 5822 5820 5818 5816 5814 5812 5810 5807 5805 5802 5800 5798 5796 5794 5791 5789 5787 5784 5782 5780 5777 5774 5771 5768 5765 5762 5759 5756 5754 5751 5749 5746 5743 5741
5826 5824 5823 5821 5820 5819 5817 5816 5814 5813 5810 5808 5806 5804 5803 5801 5799 5796 5794 5792 5790 5788 5786 5783 5781 5779 5777 5775 5772 5769 5766 5763 5760 5757 5754 5752 5749 5746 5743 5741 5738 5735 5732
5815 5814 5812 5811 5810 5809 5807 5806 5804 5802 5801 5799 5797 5795 5793 5791 5789 5787 5785 5783 5781 5779 5778 5776 5774 5771 5769 5767 5764 5761 5759 5756 5753 5749 5746 5744 5740 5737 5735 5732 5729 5727 5724
5805 5804 5803 5801 5800 5798 5797 5795 5794 5793 5791 5789 5788 5786 5784 5782 5780 5778 5776 5775 5773 5771 5769 5767 5765 5763 5761 5758 5756 5753 5750 5747 5745 5741 5738 5735 5732 5729 5726 5723 5720 5717 5714
5794 5793 5792 5791 5789 5788 5787 5785 5784 5782 5781 5779 5778 5776 5773 5771 5770 5768 5767 5765 5764 5762 5760 5758 5756 5753 5751 5749 5747 5744 5742 5739 5736 5733 5729 5726 5723 5720 5717 5714 5711 5708 5705
5784 5782 5781 5780 5779 5777 5776 5774 5773 5772 5770 5769 5767 5765 5764 5762 5760 5759 5757 5756 5754 5752 5750 5748 5746 5744 5742 5740 5737 5735 5732 5730 5727 5724 5720 5717 5714 5710 5707 5704 5701 5698 5695
5772 5771 5770 5769 5768 5767 5765 5764 5762 5761 5760 5758 5757 5755 5753 5751 5749 5748 5747 5746 5744 5742 5740 5739 5737 5734 5732 5730 5728 5725 5722 5720 5717 5714 5711 5707 5704 5701 5697 5694 5692 5688 5685
5761 5760 5759 5758 5756 5755 5753 5752 5751 5750 5749 5748 5746 5744 5743 5741 5739 5738 5736 5735 5734 5732 5730 5729 5727 5725 5722 5720 5717 5715 5712 5710 5707 5703 5700 5697 5694 5691 5688 5685 5681 5678 5675
5751 5750 5748 5747 5745 5744 5742 5741 5740 5739 5738 5736 5735 5734 5732 5731 5729 5727 5726 5724 5723 5722 5720 5718 5717 5715 5712 5710 5707 5705 5702 5699 5696 5693 5690 5687 5684 5681 5678 5675 5671 5668 5664
5740 5739 5737 5736 5734 5733 5731 5730 5729 5728 5727 5726 5724 5723 5722 5720 5719 5717 5715 5714 5713 5711 5710 5708 5706 5704 5702 5700 5697 5694 5692 5689 5685 5682 5679 5676 5673 5670 5667 5664 5660 5657 5653
5729 5728 5727 5726 5724 5723 5721 5720 5719 5718 5716 5715 5714 5712 5711 5709 5708 5707 5705 5703 5702 5701 5699 5697 5696 5694 5691 5689 5687 5684 5681 5678 5675 5672 5669 5666 5663 5660 5656 5652 5649 5645 5641